This is the latest recevied weather packets stored in our database for station/object KK7ISX. If no packets are shown the sender has not sent any weather packets the latest 10 day(s).
| Time | Temp. | Humidity | Pressure | Rain* | Wind** | Luminosity | Snow |
|---|---|---|---|---|---|---|---|
| 1777617272 | 11.11° C | 63% | 1019.5 hPa | 0 mm | - | 0 W/m² | - |
| 1777616969 | 10.56° C | 65% | 1019.5 hPa | 0 mm | - | 0 W/m² | - |
| 1777616664 | 10.56° C | 66% | 1019.4 hPa | 0 mm | - | 0 W/m² | - |
| 1777616359 | 10.56° C | 66% | 1019.6 hPa | 0 mm | - | 0 W/m² | - |
| 1777616056 | 10.56° C | 65% | 1019.4 hPa | 0 mm | - | 0 W/m² | - |
| 1777615753 | 11.11° C | 64% | 1019.1 hPa | 0 mm | - | 0 W/m² | - |
| 1777615450 | 11.11° C | 64% | 1019.1 hPa | 0 mm | - | 0 W/m² | - |
| 1777615149 | 11.11° C | 63% | 1018.9 hPa | 0 mm | - | 0 W/m² | - |
| 1777614845 | 11.11° C | 64% | 1018.8 hPa | 0 mm | - | 0 W/m² | - |
| 1777614542 | 11.67° C | 63% | 1019.2 hPa | 0 mm | - | 0 W/m² | - |
| 1777614237 | 11.11° C | 64% | 1019 hPa | 0 mm | - | 0 W/m² | - |
| 1777613932 | 11.67° C | 65% | 1018.8 hPa | 0 mm | - | 0 W/m² | - |
| 1777613629 | 11.67° C | 63% | 1018.8 hPa | 0 mm | - | 0 W/m² | - |
| 1777613326 | 12.22° C | 62% | 1018.7 hPa | 0 mm | - | 0 W/m² | - |
| 1777613023 | 12.22° C | 60% | 1018.6 hPa | 0 mm | - | 0 W/m² | - |
| 1777612718 | 12.78° C | 59% | 1018.6 hPa | 0 mm | - | 0 W/m² | - |
| 1777612415 | 12.78° C | 58% | 1018.7 hPa | 0 mm | - | 0 W/m² | - |
| 1777612110 | 13.33° C | 61% | 1018.7 hPa | 0 mm | - | 0 W/m² | - |
| 1777611806 | 13.33° C | 58% | 1018.6 hPa | 0 mm | - | 0 W/m² | - |
| 1777611502 | 12.78° C | 57% | 1018.5 hPa | 0 mm | - | 0 W/m² | - |
| 1777611199 | 13.33° C | 57% | 1018.6 hPa | 0 mm | - | 0 W/m² | - |
| 1777610896 | 13.33° C | 57% | 1018.3 hPa | 0 mm | - | 0 W/m² | - |
| 1777610590 | 13.33° C | 55% | 1018.6 hPa | 0 mm | - | 0 W/m² | - |
| 1777610289 | 13.33° C | 55% | 1018.6 hPa | 0 mm | - | 0 W/m² | - |
| 1777609987 | 13.89° C | 54% | 1018.4 hPa | 0 mm | - | 0 W/m² | - |
* Rain latest hour (hover to see other rain measurements)
** Current wind speed in m/s (hover to see current wind gust speed)